Regional Weather Roundup
Issued by NWS

Home | Current Version | Previous Version | Graphics & Text | Print | Product List | Glossary On
Versions: 1 2 3 4 5 6 7 8 9 10 11 12 13 14 15 16 17 18 19 20 21 22 23 24 25 26 27 28 29 30 31 32 33 34 35 36 37 38 39 40 41 42 43 44 45 46 47 48 49 50
000
ASUS43 KDMX 040307
RWRIA

WEATHER ROUNDUP FOR IOWA
NATIONAL WEATHER SERVICE DES MOINES IA
1000 PM CDT MON AUG 03 2015

NOTE: "FAIR" INDICATES FEW OR NO CLOUDS BELOW 12,000 FEET WITH NO
SIGNIFICANT WEATHER AND/OR OBSTRUCTIONS TO VISIBILITY.

* - THESE STATIONS ARE NOT NWS STATIONS...THUS NOT UNDER NWS
QUALITY CONTROL.  THEY ALSO DO NOT REPORT WEATHER SUCH
AS PRECIPITATION OR FOG.

IAZ001>003-012>014-020>022-031>034-043>046-040400-
   NORTHWEST IOWA

CITY           SKY/WX    TMP DP  RH WIND       PRES   REMARKS
CARROLL *      CLEAR     64  63  94 CALM      29.97R
CHEROKEE *     CLEAR     66  66 100 CALM      29.97R
DENISON *      CLEAR     66  64  94 CALM      29.96R
LE MARS *      CLEAR     66  64  94 CALM      29.98R
ORANGE CITY *  CLEAR     70  61  73 CALM      29.98R
SHELDON *      CLEAR     63  61  94 CALM      29.96S
SIOUX CITY     MOCLDY    72  62  71 E5        29.96R
SPENCER        CLEAR     65  59  81 W5        29.97R
STORM LAKE *   CLEAR     64  57  77 CALM      29.99R
$$

IAZ055>058-069>071-079>083-090>094-040400-
   SOUTHWEST IOWA

CITY           SKY/WX    TMP DP  RH WIND       PRES   REMARKS
ATLANTIC *     CLOUDY    70  68  94 N3        29.97R
AUDUBON *      CLEAR     66  63  88 CALM      29.99R
CLARINDA *     CLEAR     72  66  83 CALM      29.98R
COUNCIL BLFS *   N/A     72  64  78 E5        29.97R
CRESTON *      CLEAR     70  64  83 NE5       29.99R
HARLAN  *      CLOUDY    70  70 100 CALM      30.01R
LAMONI         MOCLDY    72  65  78 CALM      29.98R
RED OAK *      CLOUDY    70  68  94 CALM      29.97R
SHENANDOAH *     N/A     70  68  94 NE6       29.96R
$$

IAZ047>049-059>061-072>074-084-040400-
   CENTRAL IOWA

CITY           SKY/WX    TMP DP  RH WIND       PRES   REMARKS
AMES           CLEAR     64  60  87 SW3       29.96R
ANKENY *       CLEAR     64  61  88 CALM      29.96R
CHARITON *     MOCLDY    70  64  83 E3        29.97R
DES MOINES     PTCLDY    74  55  51 N3        29.96R
GRINNELL*      CLEAR     68  57  68 CALM      29.98R
KNOXVILLE *    CLEAR     70  59  68 CALM      29.96R
MARSHALLTOWN   CLEAR     67  60  78 W3        29.95R
PELLA *        CLEAR     66  61  82 CALM      29.98R
PERRY *          N/A     68  63  83 CALM      29.97R
$$

IAZ004>006-015-016-023>025-035-036-040400-
   NORTH CENTRAL IOWA

CITY           SKY/WX    TMP DP  RH WIND       PRES   REMARKS
ALGONA *       PTCLDY    66  61  82 W3        29.97R
CLARION *      CLEAR     63  61  94 CALM      29.96R
ESTHERVILLE    CLEAR     64  58  80 W6        29.97R
FORT DODGE *   CLEAR     63  57  82 CALM      29.97R
MASON CITY     CLEAR     62  57  83 CALM      29.97R
FOREST CITY *  CLEAR     59  59 100 CALM      29.97R
IOWA FALLS *     N/A     64  59  82 CALM      29.97R
$$

IAZ007>011-017>019-026>030-037>042-050>054-066-040400-
   NORTHEAST IOWA

CITY           SKY/WX    TMP DP  RH WIND       PRES   REMARKS
CEDAR RAPIDS   CLEAR     63  60  90 W6        29.95R
CHARLES CITY * CLEAR     61  59  94 NW3       29.96R
CLINTON *      CLEAR     63  57  82 NW7       29.96R
DECORAH *      CLEAR     64  54  68 CALM      29.94R
DUBUQUE          N/A     64  56  75 NW7       29.95R
MONTICELLO *   CLEAR     63  59  88 CALM      29.94R
OELWEIN *        N/A    N/A N/A N/A MISG        N/A
WATERLOO       CLEAR     65  59  81 CALM      29.94R
$$

IAZ064-065-067-068-078-040400-
   EAST CENTRAL IOWA

CITY           SKY/WX    TMP DP  RH WIND       PRES   REMARKS
DAVENPORT      CLEAR     64  59  83 W6        29.95R
IOWA CITY      CLEAR     66  59  78 W3        29.96R
MT. PLEASANT * CLEAR     70  57  64 CALM      29.96R
MUSCATINE *    CLEAR     66  57  72 CALM      29.95R
QUAD CITIES    CLEAR     64  58  80 SW5       29.94R
$$

IAZ062-063-075>077-085>089-095>099-040400-
   SOUTHEAST IOWA

CITY           SKY/WX    TMP DP  RH WIND       PRES   REMARKS
BURLINGTON     CLEAR     68  61  78 N5        29.96R
FAIRFIELD *    CLEAR     64  61  88 N5        29.97R
FORT MADISON * CLEAR     66  63  88 CALM      29.97R
KEOKUK *       PTCLDY    72  64  78 CALM      29.95R
OSKALOOSA *      N/A     61  59  94 CALM      29.97R
CENTERVILLE *  MOCLDY    68  64  88 E3        29.98R
OTTUMWA        CLEAR     68  58  70 N3        29.95R
WASHINGTON *   CLEAR     63  59  88 W3        29.97R
$$

ABBREVIATIONS USED IN REMARKS
   TC - TEMPERATURES IN CELSIUS
  WCI - WIND CHILL INDEX
   HX - HEAT INDEX
  VSB - VISIBILITY
$$




USA.gov is the U.S. government's official web portal to all federal, state and local government web resources and services.